Weather in Ubon Ratchathani

Thailand     15°15′17″N   104°52′05″E
temp.,
°C
wind,
m/s
gust,
m/s
humid.,
%
clouds,
%
prec.,
mm/h
press.,
hPa
HPBL,
m
22 october, fri
fri2201:00+25ssw1191100 9.6 101116
04:00+23nne2497100 9.0 1012164
07:00+24nne349599 10.9 1014218
10:00+27e448387 0.0 1015715
13:00+28ene2376100 0.8 1012761
16:00+28ne358198 3.5 1010237
19:00+23ne6118995 6.3 1013410
22:00+22ne6129194 1.4 1015348
23 october, sat
sat2301:00+21nne6129173 2.4 1013354
04:00+21ne51390100 0.1 1013413
07:00+21ne51288100 0.1 1015463
10:00+26ne797341 0.0 1017876
13:00+27ne5772100 0.0 1014944
16:00+25nne4981100 0.0 1012316
19:00+23ne6127874 0.0 1014475
22:00+22ne6138224 0.0 1015439
24 october, sun
sun2401:00+21nne5128497 0.0 1014408
04:00+20nne6138674 0.0 1013464
07:00+20nne71588100 0.0 1015511
10:00+25nne81577100 0.0 1015965
13:00+25ne71377100 0.0 10121020
16:00+24ne61379100 0.0 10111042
19:00+22nne71580100 0.0 1013857
22:00+21nne61378100 0.0 1014692
25 october, mon
mon2501:00+22ne61280100 0.0 1013554
04:00+21ne51184100 0.0 1012412
07:00+22ne5128587 0.0 1013482
10:00+26ne797499 0.0 1014925
13:00+27ne887396 0.0 10111021
16:00+25ne61080100 0.0 1010703
19:00+23ne61183100 0.0 1011476
22:00+22nne498734 0.0 1013322
26 october, tue
tue2601:00+21nne489092 0.0 1012267
04:00+22ne488995 0.0 1011310
07:00+22ne489086 0.1 1012324
10:00+26ne567798 0.0 1013660
13:00+29ne3467100 0.1 10101146
16:00+27ne4679100 2.8 1009588
19:00+24ne5128698 3.1 1010424
22:00+23nne6128797 0.0 1012371